CDT,Max TemperatureF,Mean TemperatureF,Min TemperatureF,Max Dew PointF,MeanDew PointF,Min DewpointF,Max Humidity, Mean Humidity, Min Humidity, Max Sea Level PressureIn, Mean Sea Level PressureIn, Min Sea Level PressureIn, Max VisibilityMiles, Mean VisibilityMiles, Min VisibilityMiles, Max Wind SpeedMPH, Mean Wind SpeedMPH, Max Gust SpeedMPH,PrecipitationIn, CloudCover, Events, WindDirDegrees
2013-10-1,81,69,57,69,63,57,100,88,58,30.20,30.13,30.05,10,8,1,8,2,,0.00,2,,183
2013-10-2,81,70,59,70,65,60,100,89,54,30.22,30.16,30.12,10,7,1,7,1,,0.01,0,Rain,167
2013-10-3,81,70,59,69,63,59,100,94,60,30.19,30.12,30.10,10,4,0,9,1,,0.00,0,Fog,171
2013-10-4,84,74,63,71,66,62,93,77,57,30.20,30.15,30.12,10,10,10,10,5,,0.00,1,,150
2013-10-5,86,75,64,71,68,65,100,76,56,30.16,30.11,30.03,10,10,6,12,4,,0.00,0,,155
2013-10-6,73,64,54,72,66,54,100,97,78,30.02,29.96,29.89,10,6,0,15,6,20,1.78,7,Fog-Rain-Thunderstorm,210
2013-10-7,66,56,46,53,49,44,100,78,52,30.14,30.07,30.00,10,10,10,14,4,18,0.01,0,,359
2013-10-8,74,60,47,61,52,45,96,77,55,30.16,30.13,30.10,10,10,10,9,6,,0.00,2,,25
2013-10-9,72,66,59,64,60,57,100,86,66,30.24,30.18,30.11,10,9,2,9,3,,0.00,5,,107
2013-10-10,79,67,55,64,59,55,100,93,54,30.23,30.15,30.08,10,5,0,7,0,,0.00,3,Fog,347
2013-10-11,79,66,52,64,58,53,100,89,48,30.17,30.10,30.07,10,6,1,6,0,,0.00,0,,303
2013-10-12,79,66,52,66,60,52,100,87,56,30.19,30.14,30.07,10,7,2,9,1,,0.00,0,,246
2013-10-13,81,68,56,67,60,57,100,92,47,30.29,30.21,30.16,10,4,0,6,0,,0.00,0,Fog-Rain,10
2013-10-14,81,68,56,63,60,57,100,85,54,30.28,30.22,30.16,10,7,0,6,1,,0.00,1,Fog,93
2013-10-15,73,67,61,63,61,60,96,81,61,30.19,30.13,30.08,10,10,10,10,4,,0.00,1,,148
2013-10-16,66,64,61,66,64,60,100,99,87,30.09,30.02,29.96,10,4,0,13,5,,0.73,7,Fog-Rain,171
2013-10-17,63,56,46,63,59,47,100,97,80,30.09,30.00,29.93,10,4,0,9,2,,0.02,7,Fog-Rain,328
2013-10-18,65,54,43,57,48,44,100,94,58,30.15,30.07,30.03,10,4,0,0,0,,0.00,3,Fog,-1
2013-10-19,65,53,41,55,50,41,100,86,61,30.12,30.06,30.01,10,10,7,12,3,16,0.00,1,,296
2013-10-20,64,50,35,46,39,35,100,87,34,30.17,30.12,30.09,10,6,0,6,1,,0.00,0,Fog,47
2013-10-21,68,51,34,53,45,35,100,80,42,30.16,30.11,30.07,10,10,8,7,1,,0.00,0,Rain,220
2013-10-22,65,55,45,53,49,46,100,92,63,30.09,30.04,29.99,10,6,0,8,2,,0.00,0,Fog,335
2013-10-23,56,46,36,44,40,36,100,78,47,30.18,30.11,29.99,10,10,10,13,4,20,0.00,1,,324
2013-10-24,63,48,34,45,40,35,100,75,47,30.38,30.25,30.19,10,10,10,9,3,,0.00,1,,4
2013-10-25,52,41,30,34,29,25,96,69,35,30.52,30.44,30.39,10,10,8,8,4,,0.00,0,Rain,16
2013-10-26,61,44,28,42,34,28,100,69,34,30.37,30.29,30.20,10,10,8,8,1,,0.00,1,,198
2013-10-27,70,60,50,55,48,42,93,74,51,30.20,30.16,30.12,10,10,8,10,2,,0.00,3,Rain,202
2013-10-28,68,60,51,59,55,52,100,92,67,30.30,30.24,30.14,10,6,0,9,2,,0.02,5,Fog-Rain,195
2013-10-29,74,62,50,63,54,50,100,92,58,30.35,30.29,30.25,10,5,0,9,1,,0.00,2,Fog,202
2013-10-30,77,66,55,59,56,52,100,72,43,30.32,30.24,30.15,10,10,3,13,4,17,0.00,0,,176
2013-10-31,69,65,61,66,63,57,100,91,75,30.12,29.90,29.76,10,8,2,26,13,37,0.36,6,Rain,183